Overview Statistics Trail Chart Weather Telemetry Raw packets
 

This is the latest recevied weather packets stored in our database for station/object N8BAP. If no packets are shown the sender has not sent any weather packets the latest 10 day(s).

<< 83 84 85 86 87 88 89 >>
Time Temp. Humidity Pressure Rain* Wind** Luminosity Snow
1788012428 22.22° C 79% 1028 hPa 0 mm - 419 W/m² -
1788012128 22.22° C 78% 1028 hPa 0 mm - 389 W/m² -
1788011822 21.67° C 78% 1027.9 hPa 0 mm - 388 W/m² -
1788011521 21.67° C 80% 1028.2 hPa 0 mm - 363 W/m² -
1788011216 21.67° C 81% 1028.2 hPa 0 mm - 334 W/m² -
1788010915 21.67° C 80% 1028.3 hPa 0 mm - 319 W/m² -
1788010615 21.67° C 78% 1028.3 hPa 0 mm - 301 W/m² -
1788010309 21.67° C 80% 1028.4 hPa 0 mm - 294 W/m² -
1788010004 21.67° C 80% 1028.2 hPa 0 mm - 282 W/m² -
1788009703 21.11° C 83% 1028.4 hPa 0 mm - 271 W/m² -
1788009402 20.56° C 83% 1028.4 hPa 0 mm - 266 W/m² -
1788009096 20.56° C 83% 1028.3 hPa 0 mm - 62 W/m² -
1788008792 20.56° C 83% 1028.1 hPa 0 mm - 133 W/m² -
1788008491 20° C 86% 1028.3 hPa 0 mm - 113 W/m² -
1788008189 20° C 86% 1028.1 hPa 0 mm - 117 W/m² -
1788007888 20° C 86% 1027.7 hPa 0 mm - 177 W/m² -
1788007586 19.44° C 88% 1027.7 hPa 0 mm - 154 W/m² -
1788007286 18.89° C 88% 1027.9 hPa 0 mm - 139 W/m² -
1788006981 18.89° C 88% 1027.9 hPa 0 mm - 134 W/m² -
1788006675 18.89° C 90% 1027.7 hPa 0 mm - 128 W/m² -
1788006370 18.33° C 90% 1027.9 hPa 0 mm - 116 W/m² -
1788006069 17.78° C 91% 1027.7 hPa 0 mm - 71 W/m² -
1788005768 17.78° C 92% 1027.7 hPa 0 mm - 52 W/m² -
1788005458 17.22° C 94% 1027.7 hPa 0 mm - 48 W/m² -
1788005156 17.22° C 96% 1027.4 hPa 0 mm - 45 W/m² -

* Rain latest hour (hover to see other rain measurements)
** Current wind speed in m/s (hover to see current wind gust speed)